{"data":{"norad_id":67021,"epoch":"2026-09-20T21:13:50.485440Z","epoch_age_seconds":48886,"freshness":"FRESH","line1":"1 67021U 25293U   26263.88461210 -.00027232  00000+0 -22871-2 0  9995","line2":"2 67021  70.0073 322.3969 0003045 250.6863 109.3967 14.98265774 44120","mean_motion":14.98265774,"eccentricity":0.0003045,"inclination_deg":70.0073,"raan_deg":322.3969,"arg_perigee_deg":250.6863,"mean_anomaly_deg":109.3967,"bstar":-0.0022871,"rev_number":4412,"period_min":96.11111893423,"perigee_km":570.13811743102,"apogee_km":574.37090586161,"semimajor_km":6950.3915116463,"source":"CELESTRAK","updated_at":"2026-09-21T09:00:36.072046Z"}}